Weather History for EHVK - March, 2014

Change the Weather History Date:

Sunday, March 23, 2014

  Actual Average Record
Temperature  
Mean Temperature 40 °F -  
Max Temperature 48 °F 54 °F 66 °F (2012)
Min Temperature 30 °F 38 °F 23 °F (2008)
Degree Days  
Heating Degree Days 26    
Moisture  
Dew Point 36 °F    
Average Humidity 83    
Maximum Humidity 100    
Minimum Humidity 62    
Precipitation  
Precipitation 0.12 in - - ()
Sea Level Pressure  
Sea Level Pressure 29.69 in    
Wind  
Wind Speed 8 mph ()    
Max Wind Speed 15 mph    
Max Gust Speed 26 mph    
Visibility 7.8 miles    
Events Rain    
Averages and records for this station are not official NWS values.
T = Trace of Precipitation, MM = Missing Value Source: Averaged Metar Reports

Daily Weather History Graph

Daily Weather History Graph

Search for Another Location

Airport or City:

Trip Planner

Search our weather history database for the weather conditions in past years. The results will help you decide how hot, cold, wet, or windy it might be!

Date:

Astronomy

Mar. 23, 2014 Rise Set
Actual Time 6:33 AM CET 6:55 PM CET
Civil Twilight 5:59 AM CET 7:28 PM CET
Nautical Twilight 5:20 AM CET 8:08 PM CET
Astronomical Twilight 4:38 AM CET 8:50 PM CET
Moon 1:31 AM CET (3/23) 10:23 AM CET (3/23)
Length of Visible Light 13h 28m
Length of Day
12h 21m
Waning Gibbous, 57% of the Moon is Illuminated
Mar 23
Waning Gibbous
Mar 24
Last Quarter
Mar 30
New
Apr 7
First Quarter
Apr 15
Full

Hourly Weather History & Observations

Time (CET) Temp. Windchill Dew Point Humidity Pressure Visibility Wind Dir Wind Speed Gust Speed Precip Events Conditions
12:00 AM 38 °F - 34 °F 81% 29.63 in 19 mi South 8.9 mph - -   Scattered Clouds
12:25 AM 39.2 °F 32.5 °F 35.6 °F 87% 29.62 in 6.2 mi SSW 10.4 mph - N/A   Overcast
12:55 AM 41.0 °F 34.7 °F 35.6 °F 81% 29.62 in 6.2 mi SSW 10.4 mph - N/A   Overcast
12:59 AM 39.2 °F 32.5 °F 35.6 °F 87% 29.62 in 6.2 mi SSW 10.4 mph - N/A   Overcast
1:00 AM 40 °F - 35 °F 78% 29.63 in 25 mi SSW 8.9 mph - -   Partly Cloudy
1:20 AM 39.2 °F 32.5 °F 33.8 °F 81% 29.62 in 6.2 mi SSW 10.4 mph - N/A   Partly Cloudy
1:25 AM 39.2 °F 32.5 °F 33.8 °F 81% 29.62 in 6.2 mi SSW 10.4 mph - N/A   Unknown
1:55 AM 37.4 °F 30.8 °F 33.8 °F 87% 29.62 in 6.2 mi SSW 9.2 mph - N/A   Unknown
2:00 AM 37 °F - 34 °F 85% 29.63 in 28 mi SSW 8.9 mph - -  
2:25 AM 37.4 °F 30.8 °F 33.8 °F 87% 29.62 in 6.2 mi SSW 9.2 mph - N/A   Unknown
2:55 AM 35.6 °F 29.2 °F 33.8 °F 93% 29.62 in 6.2 mi SSW 8.1 mph - N/A   Unknown
3:00 AM 36 °F - 34 °F 87% 29.62 in 19 mi SSW 6.7 mph - -  
3:25 AM 33.8 °F 28.6 °F 32.0 °F 93% 29.59 in 6.2 mi SSW 5.8 mph - N/A   Unknown
3:55 AM 33.8 °F 30.8 °F 33.8 °F 100% 29.59 in 6.2 mi SSW 3.5 mph - N/A   Unknown
4:00 AM 33 °F - 32 °F 95% 29.62 in 11 mi South 4.5 mph - -  
4:25 AM 33.8 °F 30.8 °F 32.0 °F 93% 29.59 in 6.2 mi South 3.5 mph - N/A   Unknown
4:55 AM 33.8 °F 29.6 °F 32.0 °F 93% 29.59 in 6.2 mi South 4.6 mph - N/A   Unknown
5:00 AM 33 °F - 32 °F 93% 29.62 in 7 mi South 4.5 mph - -  
5:25 AM 35.6 °F 29.2 °F 33.8 °F 93% 29.62 in 6.2 mi South 8.1 mph - N/A   Unknown
5:55 AM 35.6 °F 28.6 °F 33.8 °F 93% 29.62 in 6.2 mi SSW 9.2 mph - N/A   Unknown
6:00 AM 35 °F - 33 °F 92% 29.63 in 7 mi SSW 8.9 mph - -  
6:25 AM 33.8 °F 27.7 °F 32.0 °F 93% 29.62 in 5.6 mi SW 6.9 mph - N/A   Mist
6:55 AM 32.0 °F 25.6 °F 30.2 °F 93% 29.62 in 5.6 mi SSW 6.9 mph - N/A   Mist
7:00 AM 34 °F - 33 °F 94% 29.65 in 6 mi SSW 6.7 mph - -   Mist
7:25 AM 35.6 °F 29.2 °F 33.8 °F 93% 29.62 in 6.2 mi SSW 8.1 mph - N/A   Unknown
7:55 AM 37.4 °F 30.8 °F 35.6 °F 93% 29.65 in 6.2 mi South 9.2 mph - N/A   Unknown
8:00 AM 38 °F - 36 °F 87% 29.67 in 12 mi SSW 8.9 mph - -   Scattered Clouds
8:25 AM 39.2 °F 32.5 °F 37.4 °F 93% 29.65 in 6.2 mi SSW 10.4 mph - N/A   Scattered Clouds
8:47 AM 41.0 °F 34.3 °F 37.4 °F 87% 29.65 in 6.2 mi SW 11.5 mph - N/A   Scattered Clouds
8:55 AM 41.0 °F 34.3 °F 37.4 °F 87% 29.65 in 6.2 mi SW 11.5 mph - N/A   Mostly Cloudy
9:00 AM 42 °F - 38 °F 79% 29.68 in 18 mi SSW 11.2 mph - -   Partly Cloudy
9:13 AM 42.8 °F 36.6 °F 37.4 °F 81% 29.65 in 6.2 mi SSW 11.5 mph - N/A   Scattered Clouds
9:14 AM 42.8 °F 36.6 °F 37.4 °F 81% 29.65 in 6.2 mi SSW 11.5 mph - N/A   Mostly Cloudy
9:25 AM 42.8 °F 36.2 °F 37.4 °F 81% 29.65 in 6.2 mi SSW 12.7 mph - N/A   Overcast
9:55 AM 42.8 °F 36.2 °F 37.4 °F 81% 29.68 in 6.2 mi SW 12.7 mph - N/A   Overcast
10:00 AM 42 °F - 38 °F 80% 29.69 in 16 mi SW 13.4 mph - -   Overcast
10:25 AM 42.8 °F 36.2 °F 37.4 °F 81% 29.68 in 6.2 mi SW 12.7 mph - N/A   Overcast
10:55 AM 42.8 °F 36.2 °F 37.4 °F 81% 29.68 in 6.2 mi SW 12.7 mph - N/A   Overcast
11:00 AM 45 °F - 39 °F 71% 29.70 in 12 mi SW 13.4 mph - -   Overcast
11:00 AM 44.6 °F 38.4 °F 39.2 °F 81% 29.68 in 6.2 mi SW 12.7 mph - N/A   Mostly Cloudy
11:11 AM 44.6 °F 38.4 °F 39.2 °F 81% 29.68 in 6.2 mi SW 12.7 mph - N/A   Mostly Cloudy
11:15 AM 44.6 °F 38.4 °F 37.4 °F 76% 29.68 in 6.2 mi SW 12.7 mph - N/A   Mostly Cloudy
11:20 AM 44.6 °F 38.8 °F 39.2 °F 81% 29.68 in 6.2 mi SW 11.5 mph - N/A   Mostly Cloudy
11:25 AM 44.6 °F 38.1 °F 39.2 °F 81% 29.68 in 6.2 mi SW 13.8 mph - N/A   Mostly Cloudy
11:29 AM 46.4 °F 40.4 °F 39.2 °F 76% 29.68 in 6.2 mi SW 13.8 mph - N/A   Mostly Cloudy
11:39 AM 46.4 °F 41.1 °F 39.2 °F 76% 29.68 in 6.2 mi SSW 11.5 mph - N/A   Mostly Cloudy
11:55 AM 44.6 °F 39.2 °F 39.2 °F 81% 29.68 in 6.2 mi SW 10.4 mph - N/A   Mostly Cloudy
12:00 PM 45 °F - 38 °F 70% 29.70 in 13 mi SW 8.9 mph - -   Scattered Clouds
12:12 PM 44.6 °F 38.8 °F 37.4 °F 76% 29.68 in 6.2 mi SW 11.5 mph - N/A   Mostly Cloudy
12:19 PM 46.4 °F 41.1 °F 39.2 °F 76% 29.68 in 6.2 mi SW 11.5 mph - N/A   Mostly Cloudy
12:25 PM 44.6 °F 39.2 °F 37.4 °F 76% 29.68 in 6.2 mi SSW 10.4 mph - N/A   Mostly Cloudy
12:29 PM 46.4 °F 41.9 °F 37.4 °F 71% 29.68 in 6.2 mi SSW 9.2 mph - N/A   Overcast
12:33 PM 46.4 °F 41.5 °F 37.4 °F 71% 29.68 in 6.2 mi SSW 10.4 mph - N/A   Mostly Cloudy
12:55 PM 46.4 °F 41.1 °F 37.4 °F 71% 29.68 in 6.2 mi SSW 11.5 mph - N/A   Overcast
12:56 PM 46.4 °F 41.5 °F 37.4 °F 71% 29.68 in 6.2 mi SSW 10.4 mph - N/A   Overcast
1:00 PM 46 °F - 38 °F 63% 29.70 in 17 mi SSW 11.2 mph - - Rain Light Rain Showers
1:03 PM 46.4 °F 41.1 °F 37.4 °F 71% 29.68 in 6.2 mi SW 11.5 mph - N/A Rain Light Rain
1:07 PM 41.0 °F 33.1 °F 35.6 °F 81% 29.68 in 6.2 mi SW 15.0 mph 26.5 mph N/A Rain Rain
1:14 PM 41.0 °F 33.1 °F 35.6 °F 81% 29.68 in 5.6 mi WSW 15.0 mph 26.5 mph N/A Rain Light Rain Showers
1:20 PM 41.0 °F 34.3 °F 37.4 °F 87% 29.68 in 6.2 mi WSW 11.5 mph - N/A Rain Light Rain
1:25 PM 41.0 °F 34.7 °F 37.4 °F 87% 29.71 in 6.2 mi WSW 10.4 mph - N/A   Mostly Cloudy
1:29 PM 41.0 °F 34.3 °F 37.4 °F 87% 29.71 in 6.2 mi West 11.5 mph - N/A   Mostly Cloudy
1:40 PM 41.0 °F 34.7 °F 37.4 °F 87% 29.71 in 6.2 mi WSW 10.4 mph - N/A Rain Light Rain
1:55 PM 41.0 °F 34.3 °F 37.4 °F 87% 29.71 in 6.2 mi SW 11.5 mph - N/A   Mostly Cloudy
2:00 PM 42 °F - 38 °F 83% 29.72 in 19 mi SW 11.2 mph - - Rain Rain
2:25 PM 44.6 °F 39.7 °F 39.2 °F 81% 29.71 in 6.2 mi SSW 9.2 mph - N/A   Scattered Clouds
2:51 PM 44.6 °F 38.8 °F 39.2 °F 81% 29.71 in 6.2 mi WSW 11.5 mph 23.0 mph N/A   Scattered Clouds
2:55 PM 44.6 °F 38.4 °F 37.4 °F 76% 29.71 in 6.2 mi WSW 12.7 mph - N/A   Mostly Cloudy
3:00 PM 43 °F - 36 °F 69% 29.73 in 17 mi West 13.4 mph - - Rain Light Rain Showers
3:10 PM 42.8 °F 36.6 °F 37.4 °F 81% 29.71 in 6.2 mi West 11.5 mph - N/A Rain Light Rain
3:14 PM 42.8 °F 37.5 °F 37.4 °F 81% 29.71 in 6.2 mi West 9.2 mph - N/A Rain Light Rain
3:25 PM 44.6 °F 40.7 °F 37.4 °F 76% 29.71 in 6.2 mi West 6.9 mph - N/A   Mostly Cloudy
3:55 PM 46.4 °F 42.9 °F 37.4 °F 71% 29.71 in 6.2 mi WSW 6.9 mph - N/A   Mostly Cloudy
4:00 PM 46 °F - 38 °F 66% 29.73 in 18 mi WSW 6.7 mph - - Rain Rain
4:25 PM 46.4 °F 42.9 °F 37.4 °F 71% 29.71 in 6.2 mi WSW 6.9 mph - N/A   Unknown
4:55 PM 46.4 °F 42.4 °F 37.4 °F 71% 29.71 in 6.2 mi WSW 8.1 mph - N/A   Unknown
5:00 PM 46 °F - 37 °F 62% 29.74 in 19 mi WSW 8.9 mph - -   Partly Cloudy
5:03 PM 46.4 °F 42.4 °F 37.4 °F 71% 29.71 in 6.2 mi SW 8.1 mph - N/A   Scattered Clouds
5:10 PM 46.4 °F 42.4 °F 39.2 °F 76% 29.71 in 6.2 mi SW 8.1 mph - N/A   Mostly Cloudy
5:16 PM 46.4 °F 42.9 °F 37.4 °F 71% 29.71 in 6.2 mi SW 6.9 mph - N/A   Mostly Cloudy
5:25 PM 44.6 °F 40.2 °F 37.4 °F 76% 29.71 in 6.2 mi SW 8.1 mph - N/A   Overcast
5:30 PM 44.6 °F 40.2 °F 37.4 °F 76% 29.74 in 6.2 mi SW 8.1 mph - N/A   Overcast
5:32 PM 44.6 °F 39.7 °F 37.4 °F 76% 29.74 in 6.2 mi WSW 9.2 mph - N/A Rain Rain
5:38 PM 44.6 °F 40.7 °F 37.4 °F 76% 29.74 in 6.2 mi West 6.9 mph - N/A Rain Rain Showers
5:42 PM 44.6 °F 40.7 °F 39.2 °F 81% 29.74 in 5.6 mi West 6.9 mph - N/A Rain Rain Showers
5:43 PM 46.4 °F 42.4 °F 39.2 °F 76% 29.74 in 6.2 mi SW 8.1 mph - N/A Rain Light Rain
5:50 PM 46.4 °F 42.4 °F 39.2 °F 76% 29.74 in 6.2 mi SSW 8.1 mph - N/A   Scattered Clouds
5:55 PM 46.4 °F 42.9 °F 39.2 °F 76% 29.74 in 6.2 mi SSW 6.9 mph - N/A   Scattered Clouds
6:00 PM 46 °F - 38 °F 63% 29.75 in 19 mi SSW 6.7 mph - - Rain Rain
6:08 PM 44.6 °F 41.4 °F 39.2 °F 81% 29.74 in 6.2 mi SSW 5.8 mph - N/A   Mostly Cloudy
6:25 PM 42.8 °F 39.3 °F 37.4 °F 81% 29.74 in 6.2 mi SW 5.8 mph - N/A   Unknown
6:55 PM 41.0 °F - 39.2 °F 93% 29.74 in 6.2 mi West 2.3 mph - N/A   Unknown
7:00 PM 40 °F - 38 °F 88% 29.77 in 22 mi West 2.2 mph - -   Partly Cloudy
7:25 PM 39.2 °F - 37.4 °F 93% 29.77 in 6.2 mi NW 1.2 mph - N/A   Partly Cloudy
7:55 PM 37.4 °F - 37.4 °F 100% 29.77 in 6.2 mi SW 1.2 mph - N/A   Partly Cloudy
8:00 PM 37 °F - 36 °F 95% 29.79 in 15 mi SW 2.2 mph - -  
8:25 PM 37.4 °F - 35.6 °F 93% 29.77 in 6.2 mi SSW 2.3 mph - N/A   Unknown
8:55 PM 37.4 °F 34.9 °F 35.6 °F 93% 29.77 in 6.2 mi SW 3.5 mph - N/A   Unknown
9:00 PM 38 °F - 35 °F 86% 29.80 in 17 mi WSW 4.5 mph - -  
9:25 PM 37.4 °F 34.9 °F 35.6 °F 93% 29.80 in 6.2 mi WSW 3.5 mph - N/A   Unknown
9:55 PM 33.8 °F 30.8 °F 33.8 °F 100% 29.80 in 6.2 mi WSW 3.5 mph - N/A   Unknown
10:00 PM 34 °F - 33 °F 97% 29.81 in 6 mi WSW 2.2 mph - -  
10:25 PM 35.6 °F 32.8 °F 35.6 °F 100% 29.80 in 6.2 mi WSW 3.5 mph - N/A   Scattered Clouds
10:55 PM 33.8 °F 27.7 °F 32.0 °F 93% 29.80 in 6.2 mi SW 6.9 mph - N/A   Unknown
11:00 PM 34 °F - 32 °F 88% 29.82 in 11 mi WSW 6.7 mph - -   Scattered Clouds
11:25 PM 33.8 °F 28.6 °F 32.0 °F 93% 29.80 in 6.2 mi WSW 5.8 mph - N/A   Scattered Clouds
11:55 PM 30.2 °F 25.4 °F 30.2 °F 100% 29.80 in 6.2 mi WSW 4.6 mph - N/A   Partly Cloudy